Regional Weather Roundup
Issued by NWS

Home | Current Version | Previous Version | Graphics & Text | Print | Product List | Glossary On
Versions: 1 2 3 4 5 6 7 8 9 10 11 12 13 14 15 16 17 18 19 20 21 22 23 24 25 26 27 28 29 30 31 32 33 34 35 36 37 38 39 40 41 42 43 44 45 46 47 48 49 50
000
ASUS43 KDMX 290707
RWRIA

WEATHER ROUNDUP FOR IOWA
NATIONAL WEATHER SERVICE DES MOINES IA
200 AM CDT SUN MAR 29 2015

NOTE: "FAIR" INDICATES FEW OR NO CLOUDS BELOW 12,000 FEET WITH NO
SIGNIFICANT WEATHER AND/OR OBSTRUCTIONS TO VISIBILITY.

* - THESE STATIONS ARE NOT NWS STATIONS...THUS NOT UNDER NWS
QUALITY CONTROL.  THEY ALSO DO NOT REPORT WEATHER SUCH
AS PRECIPITATION OR FOG.

IAZ001>003-012>014-020>022-031>034-043>046-290800-
   NORTHWEST IOWA

CITY           SKY/WX    TMP DP  RH WIND       PRES   REMARKS
CARROLL *      MOCLDY    39  30  70 S23G33    29.88F WCI  29
CHEROKEE *     CLEAR     39  30  70 S20G26    29.84R WCI  30
DENISON *      PTCLDY    39  32  75 S26G38    29.81F WCI  28
LE MARS *      MIX PCPN  43  32  65 S25G37    29.78S
ORANGE CITY *  PTCLDY    43  30  61 S16G25    29.78R
SHELDON *      CLOUDY    39  32  75 S26G35    29.76F WCI  28
SIOUX CITY     MOCLDY    44  31  60 S12       29.84R
SPENCER        CLEAR     38  30  73 S24G30    29.82F WCI  27
STORM LAKE *   CLEAR     37  30  75 S26G32    29.82F WCI  26
$$

IAZ055>058-069>071-079>083-090>094-290800-
   SOUTHWEST IOWA

CITY           SKY/WX    TMP DP  RH WIND       PRES   REMARKS
ATLANTIC *     CLOUDY    39  32  75 S15G23    29.91F WCI  31
AUDUBON *      CLEAR     39  30  70 S16G24    29.90F WCI  30
CLARINDA *     CLEAR     41  32  70 S12G22    29.96F
COUNCIL BLFS * CLOUDY    41  34  75 S20G26    29.87F
CRESTON *      CLEAR     37  32  81 S22G29    29.95F WCI  27
HARLAN  *      CLEAR     39  32  75 S18       29.91F WCI  30
LAMONI         CLEAR     37  29  72 S12       29.99F WCI  29
RED OAK *      PTCLDY    41  32  70 S16G25    29.91F
SHENANDOAH *   CLEAR     41  32  70 S20G29    29.93F
$$

IAZ047>049-059>061-072>074-084-290800-
   CENTRAL IOWA

CITY           SKY/WX    TMP DP  RH WIND       PRES   REMARKS
AMES           CLEAR     34  22  61 S14       29.98F WCI  25
ANKENY *       CLEAR     36  25  64 S14G20    30.00F WCI  27
CHARITON *     MOCLDY    36  25  64 S15G22    30.02F WCI  26
DES MOINES     PTCLDY    38  24  57 S17       30.00F WCI  28
GRINNELL*      CLEAR     32  21  64 SE16      30.03F WCI  21
KNOXVILLE *    CLEAR     34  21  60 S14G21    30.02F WCI  24
MARSHALLTOWN   CLEAR     33  20  58 S18G26    30.00F WCI  22
PELLA *        CLEAR     34  25  69 S13       30.05F WCI  25
PERRY *          N/A     36  28  75 SE17      29.93F WCI  25
$$

IAZ004>006-015-016-023>025-035-036-290800-
   NORTH CENTRAL IOWA

CITY           SKY/WX    TMP DP  RH WIND       PRES   REMARKS
ALGONA *       CLEAR     36  27  69 S25G35    29.86F WCI  23
CLARION *      CLEAR     34  25  69 S24       29.91F WCI  21
ESTHERVILLE    CLEAR     36  28  73 S30G37    29.82F WCI  23
FORT DODGE *   CLEAR     37  23  56 S22G30    29.90F WCI  27
MASON CITY     CLEAR     32  23  69 S16       29.94F WCI  21
FOREST CITY *  CLEAR     32  25  74 S25       29.90F WCI  19
IOWA FALLS *     N/A     34  23  64 SE21      29.97F WCI  22
$$

IAZ007>011-017>019-026>030-037>042-050>054-066-290800-
   NORTHEAST IOWA

CITY           SKY/WX    TMP DP  RH WIND       PRES   REMARKS
CEDAR RAPIDS   PTCLDY    31  19  61 S15       30.07F WCI  20
CHARLES CITY * CLEAR     32  19  59 S21G26    29.98F WCI  20
CLINTON *      PTCLDY    30  19  64 S14       30.18F WCI  20
DECORAH *      CLOUDY    32  18  55 S16G24    29.99F WCI  21
DUBUQUE        MOCLDY    31  17  56 S17G26    30.09F WCI  19
MONTICELLO *   CLEAR     32  19  59 S15G23    30.09F WCI  22
OELWEIN *      CLEAR     32  19  59 S18       30.03F WCI  20
WATERLOO       CLEAR     32  19  58 S18       30.01F WCI  20
$$

IAZ064-065-067-068-078-290800-
   EAST CENTRAL IOWA

CITY           SKY/WX    TMP DP  RH WIND       PRES   REMARKS
DAVENPORT      PTCLDY    32  17  54 S15       30.15F WCI  22
IOWA CITY      PTCLDY    31  20  63 S10       30.13F WCI  22
MT. PLEASANT * CLEAR     32  19  59 S15G21    30.13F WCI  22
MUSCATINE *    CLEAR     34  19  55 SE12      30.14F WCI  25
QUAD CITIES    PTCLDY    31  18  58 S13       30.15F WCI  21
$$

IAZ062-063-075>077-085>089-095>099-290800-
   SOUTHEAST IOWA

CITY           SKY/WX    TMP DP  RH WIND       PRES   REMARKS
BURLINGTON     CLEAR     33  20  58 S13G22    30.14F WCI  24
FAIRFIELD *    CLEAR     32  19  59 S15       30.10F WCI  22
FORT MADISON * CLEAR     32  21  64 S12G18    30.14F WCI  23
KEOKUK *       CLEAR     34  21  60 SE13G20   30.13F WCI  25
OSKALOOSA *      N/A     32  21  64 S16       30.07F WCI  21
CENTERVILLE *  CLEAR     34  23  64 SE14      30.07F WCI  24
OTTUMWA        CLEAR     34  19  54 S18       30.07F WCI  23
WASHINGTON *   CLEAR     32  21  64 S14       30.11F WCI  22
$$

ABBREVIATIONS USED IN REMARKS
   TC - TEMPERATURES IN CELSIUS
  WCI - WIND CHILL INDEX
   HX - HEAT INDEX
  VSB - VISIBILITY
$$



USA.gov is the U.S. government's official web portal to all federal, state and local government web resources and services.